Station SDHN4 - 8531680 - Sandy Hook, NJ Image indicating link to RSS feed of recent meteorological observations for station SDHN4


Conditions at SDHN4 as of
(12:30 am EDT)
0430 GMT on 07/19/2024:
     

Click on the graph icon in the table below to see a time series plot of the last five days of that observation.

5-day plot - Wind Direction Wind Direction (WDIR): N ( 350 deg true )
5-day plot - Wind Speed Wind Speed (WSPD): 8.0 kts
5-day plot - Wind Gust Wind Gust (GST): 12.0 kts
5-day plot - Atmospheric Pressure Atmospheric Pressure (PRES):30.01 in
5-day plot - Air Temperature Air Temperature (ATMP): 75.2 °F
5-day plot - Water Temperature Water Temperature (WTMP): 77.2 °F
5-day plot - Wind Speed at 10 Meters Wind Speed at 10 meters (WSPD10M): 9.7 kts
5-day plot - Wind Speed at 20 Meters Wind Speed at 20 meters (WSPD20M): 9.7 kts
5-day plot -  Wind Speed, Wind Gust and Atmospheric Pressure Combined plot of Wind Speed, Gust, and Air Pressure
NOS Water Level Observation Network Water Level
Previous observations
TIME
(EDT)
5-day plot - Wind Direction
WDIR
 
5-day plot - Wind Speed
WSPD
kts
5-day plot - Wind Gust
GST
kts
5-day plot - Wave Height
WVHT
ft
5-day plot - Dominant Wave Period
DPD
sec
5-day plot - Average Wave Period
APD
sec
5-day plot - Mean Wave Direction
MWD
 
5-day plot - Atmospheric Pressure
PRES
in
5-day plot - Pressure Tendency
PTDY
in
5-day plot - Air Temperature
ATMP
°F
5-day plot - Water Temperature
WTMP
°F
5-day plot - Dew Point
DEWP
°F
5-day plot - Salinity
SAL
psu
5-day plot - Visibility
VIS
nmi
5-day plot - Tide (above MLLW)
TIDE
ft
2024-07-19 12:24 am N 8.0 13.0----30.01- 75.4 77.2----
2024-07-19 12:18 amNNW 7.0 11.1----30.01- 75.2 77.2----
2024-07-19 12:12 am N 7.0 11.1----30.01- 75.6 77.4----
2024-07-19 12:06 am N 6.0 9.9----30.01- 75.7 77.4----
2024-07-19 12:00 am N 5.1 9.9----30.01+0.04 75.9 77.4----
2024-07-18 11:54 pm N 6.0 12.0----30.01- 76.1 77.4----
2024-07-18 11:48 pm N 7.0 11.1----30.01- 76.5 77.4----
2024-07-18 11:42 pm N 7.0 12.0----30.01- 76.5 77.5----
2024-07-18 11:36 pmNNW 8.0 11.1----30.01- 76.5 77.5----
2024-07-18 11:30 pm N 7.0 11.1----30.01- 76.5 77.7----
2024-07-18 11:24 pm N 8.0 12.0----30.01- 76.6 77.7----
2024-07-18 11:18 pm N 7.0 12.0----30.00- 76.8 77.7----
2024-07-18 11:12 pm N 8.9 12.0----30.00- 77.0 77.7----
2024-07-18 11:06 pmNNW 8.0 12.0----30.00- 77.2 77.9----
2024-07-18 11:00 pmNNW 8.0 12.0----30.00+0.05 77.0 78.1----
2024-07-18 10:54 pmNNW 8.0 12.0----30.00- 77.0 78.4----
2024-07-18 10:48 pm N 6.0 11.1----30.00- 77.0 78.4----
2024-07-18 10:42 pm N 7.0 8.9----30.00- 76.8 78.8----
2024-07-18 10:36 pm N 6.0 8.9----30.00- 77.0 78.8----
2024-07-18 10:30 pm N 5.1 8.0----30.00- 77.4 78.8----
2024-07-18 10:24 pm N 6.0 9.9----29.99- 77.7 78.8----
2024-07-18 10:18 pm N 6.0 9.9----30.00- 77.9 79.0----
2024-07-18 10:12 pmNNW 7.0 11.1----29.99- 77.9 79.5----
2024-07-18 10:06 pmNNW 7.0 9.9----29.99- 77.5 79.7----
2024-07-18 10:00 pmNNW 5.1 8.0----29.99+0.07 76.8 79.9----
2024-07-18 09:54 pm N 4.1 6.0----29.99- 76.1 79.9----
2024-07-18 09:48 pm N 4.1 6.0----29.99- 76.5 80.1----
2024-07-18 09:42 pm N 4.1 7.0----29.99- 76.8 80.1----
2024-07-18 09:36 pm N 4.1 8.0----29.99- 77.0 80.1----
2024-07-18 09:30 pmNNW 6.0 8.0----29.99- 77.2 80.1----
2024-07-18 09:24 pm N 5.1 8.0----29.98- 77.4 80.1----
2024-07-18 09:18 pmNNW 6.0 8.0----29.98- 77.4 80.1----
2024-07-18 09:12 pmNNW 7.0 8.9----29.98- 77.5 80.1----
2024-07-18 09:06 pm NW 6.0 8.0----29.97- 78.1 80.1----
2024-07-18 09:00 pm NW 6.0 7.0----29.97+0.05 78.3 80.1----
2024-07-18 08:54 pm NW 6.0 7.0----29.97- 78.3 80.1----
2024-07-18 08:48 pm NW 6.0 8.0----29.96- 78.6 80.1----
2024-07-18 08:42 pm NW 6.0 7.0----29.97- 78.8 80.1----
2024-07-18 08:36 pm NW 5.1 6.0----29.96- 78.8 80.1----
2024-07-18 08:30 pm NW 5.1 6.0----29.96- 78.6 80.1----
2024-07-18 08:24 pm NW 5.1 6.0----29.96- 78.3 79.9----
2024-07-18 08:18 pm NW 5.1 6.0----29.96- 78.6 79.9----
2024-07-18 08:12 pm NW 5.1 5.1----29.96- 79.2 79.9----
2024-07-18 08:06 pm NW 5.1 6.0----29.96- 79.2 79.9----
2024-07-18 08:00 pm NW 5.1 6.0----29.95+0.03 79.0 79.9----
2024-07-18 07:54 pmWNW 5.1 6.0----29.95- 79.2 79.9----
2024-07-18 07:48 pmWNW 4.1 5.1----29.95- 79.0 79.9----
2024-07-18 07:42 pmWNW 5.1 7.0----29.94- 79.2 80.1----
2024-07-18 07:36 pmWNW 5.1 7.0----29.94- 79.3 80.1----
2024-07-18 07:30 pmWNW 6.0 7.0----29.94- 79.3 80.1----
2024-07-18 07:24 pmWNW 5.1 6.0----29.94- 79.7 80.1----
2024-07-18 07:00 pm NW 8.0 9.9----29.93+0.00 81.0 80.1----
2024-07-18 06:54 pm NW 8.9 9.9----29.93- 81.1 80.1----
2024-07-18 06:48 pm NW 8.9 9.9----29.93- 80.8 80.1----
2024-07-18 06:42 pm NW 8.9 9.9----29.92- 80.1 80.2----
2024-07-18 06:36 pm NW 7.0 8.9----29.92- 79.9 80.2----
2024-07-18 06:30 pm NW 8.0 9.9----29.92- 79.5 80.2----
2024-07-18 06:24 pm NW 8.0 9.9----29.92- 79.5 80.2----
2024-07-18 06:18 pmWNW 8.9 11.1----29.92- 79.7 80.2----
2024-07-18 06:12 pmWNW 8.9 9.9----29.92- 79.7 80.1----
2024-07-18 06:06 pmWNW 9.9 11.1----29.92- 80.1 80.1----
2024-07-18 06:00 pmWNW 8.9 11.1----29.92-0.01 79.7 79.9----
2024-07-18 05:54 pmWNW 9.9 11.1----29.92- 79.7 79.7----
2024-07-18 05:48 pmWNW 8.9 9.9----29.92- 80.2 79.5----
2024-07-18 05:42 pmWNW 8.0 8.9----29.92- 80.4 79.3----
2024-07-18 05:36 pmWNW 7.0 8.9----29.92- 81.1 79.2----
2024-07-18 05:30 pmWNW 8.0 8.9----29.92- 81.5 79.0----
2024-07-18 05:24 pmWNW 7.0 8.9----29.92- 81.7 78.4----
2024-07-18 05:18 pmWNW 7.0 8.0----29.92- 81.7 78.3----
2024-07-18 05:12 pmWNW 6.0 8.0----29.92- 81.0 78.3----
2024-07-18 05:06 pmWNW 7.0 8.9----29.92- 81.1 78.3----
2024-07-18 05:00 pmWNW 8.0 9.9----29.92-0.01 81.7 78.3----
2024-07-18 04:54 pmWNW 8.0 8.9----29.92- 81.0 78.6----
2024-07-18 04:48 pm W 7.0 8.0----29.92- 80.8 79.0----
2024-07-18 04:42 pm W 7.0 8.9----29.92- 80.8 79.2----
2024-07-18 04:36 pm W 8.0 9.9----29.93- 80.8 79.3----
2024-07-18 04:30 pm W 7.0 9.9----29.92- 81.0 79.5----
2024-07-18 04:24 pm W 8.0 9.9----29.92- 81.5 79.5----
2024-07-18 04:18 pm W 8.9 11.1----29.93- 81.5 79.5----
2024-07-18 04:12 pm W 8.9 9.9----29.93- 81.9 79.5----
2024-07-18 04:06 pm W 8.9 9.9----29.92- 82.4 79.5----
2024-07-18 04:00 pmWNW 7.0 8.0----29.93+0.00 82.8 79.7----
2024-07-18 03:54 pm W 4.1 5.1----29.93- 82.4 79.7----
2024-07-18 03:48 pm W 4.1 5.1----29.93- 81.7 79.7----
2024-07-18 03:42 pmWSW 2.9 4.1----29.93- 81.3 79.7----
2024-07-18 03:36 pmWSW 2.9 4.1----29.93- 81.3 79.5----
2024-07-18 03:30 pmWSW 2.9 2.9----29.93- 81.5 79.5----
2024-07-18 03:24 pm W 1.9 2.9----29.93- 82.4 79.7----
2024-07-18 03:18 pm W 1.9 2.9----29.93- 82.4 79.7----
2024-07-18 03:12 pmWSW 1.9 1.9----29.93- 81.5 79.9----
2024-07-18 03:06 pmWSW 1.9 1.9----29.93- 81.7 80.1----
2024-07-18 03:00 pmWSW 1.9 2.9----29.93+0.00 81.1 79.9----
2024-07-18 02:54 pm SW 1.9 2.9----29.93- 80.8 79.9----
2024-07-18 02:48 pm SW 1.9 4.1----29.93- 80.6 79.9----
2024-07-18 02:42 pm SW 2.9 4.1----29.93- 80.6 79.9----
2024-07-18 02:36 pmSSW 2.9 4.1----29.93- 80.2 79.9----
2024-07-18 02:30 pmSSW 1.9 2.9----29.93- 80.2 79.7----
2024-07-18 02:24 pm S 1.9 2.9----29.93- 79.9 79.7----
2024-07-18 02:18 pmSSW 2.9 4.1----29.93- 79.5 79.7----
2024-07-18 02:12 pm SW 2.9 4.1----29.93- 79.7 79.7----
2024-07-18 02:06 pm SW 2.9 2.9----29.93- 79.7 79.7----
2024-07-18 02:00 pmWSW 2.9 2.9----29.93+0.00 80.2 79.7----
2024-07-18 01:54 pm W 1.9 2.9----29.93- 80.6 79.5----
2024-07-18 01:48 pm W 2.9 4.1----29.93-- 79.5----
2024-07-18 01:42 pm W 2.9 4.1----29.93-- 79.5----
2024-07-18 01:36 pm SW 2.9 4.1----29.93-- 79.5----
2024-07-18 01:30 pmWSW 4.1 5.1----29.93- 78.6 79.5----
2024-07-18 01:24 pmWSW 5.1 6.0----29.93- 78.6 79.3----
2024-07-18 01:18 pmWSW 5.1 6.0----29.93- 78.3 79.3----
2024-07-18 01:12 pmWSW 4.1 5.1----29.93- 78.4 79.3----
2024-07-18 01:06 pm SW 5.1 5.1----29.92- 78.1 79.3----
2024-07-18 01:00 pmWSW 5.1 5.1----29.92+0.01 78.1 79.3----
2024-07-18 12:54 pmWSW 5.1 6.0----29.93- 77.9 79.3----
2024-07-18 12:48 pmWSW 5.1 6.0----29.93- 77.9 79.3----
2024-07-18 12:42 pmWSW 5.1 7.0----29.93- 77.9 79.3----
2024-07-18 12:36 pm W 6.0 7.0----29.93- 77.9 79.3----
2024-07-18 12:30 pmWNW 4.1 7.0----29.93- 79.3 79.3----
2024-07-18 12:24 pm NW 5.1 7.0----29.93- 79.0 79.3----
2024-07-18 12:18 pmWNW 5.1 8.0----29.93- 78.4 79.3----
2024-07-18 12:12 pmWNW 5.1 8.9----29.93- 78.3 79.5----
2024-07-18 12:06 pm NW 7.0 9.9----29.93- 78.1 79.5----
2024-07-18 12:00 pmWNW 6.0 8.0----29.93+0.04 77.7 79.5----
2024-07-18 11:54 am NW 7.0 9.9----29.93- 77.7 79.5----
2024-07-18 11:48 am NW 7.0 9.9----29.93- 77.5 79.5----
2024-07-18 11:42 am NW 6.0 7.0----29.93- 77.5 79.5----
2024-07-18 11:36 amNNW 6.0 8.9----29.93- 77.5 79.5----
2024-07-18 11:30 amNNW 8.0 9.9----29.93- 77.0 79.5----
2024-07-18 11:24 amNNW 7.0 8.9----29.93- 77.5 79.5----
2024-07-18 11:18 am N 5.1 8.9----29.92- 78.3 79.5----
2024-07-18 11:12 am N 5.1 8.0----29.92- 78.1 79.5----
2024-07-18 11:06 am N 6.0 9.9----29.93- 77.4 79.5----
2024-07-18 11:00 amNNW 8.0 9.9----29.93+0.04 77.0 79.5----
2024-07-18 10:54 amNNW 6.0 11.1----29.93- 76.6 79.5----
2024-07-18 10:48 amNNW 8.0 11.1----29.93- 76.1 79.5----
2024-07-18 10:42 amNNW 7.0 9.9----29.92- 75.9 79.5----
2024-07-18 10:36 amNNW 8.0 9.9----29.92- 75.9 79.5----
2024-07-18 10:30 amNNW 7.0 9.9----29.92- 76.1 79.5----
2024-07-18 10:24 amNNW 7.0 9.9----29.91- 75.7 79.5----
2024-07-18 10:18 amNNW 6.0 9.9----29.92- 75.4 79.5----
2024-07-18 10:12 amNNW 7.0 8.9----29.91- 75.2 79.5----
2024-07-18 10:06 amNNW 8.0 9.9----29.91- 75.0 79.5----
2024-07-18 10:00 amNNW 7.0 9.9----29.91+0.04 75.0 79.5----
2024-07-18 09:54 amNNW 7.0 8.9----29.91- 75.0 79.5----
2024-07-18 09:48 amNNW 7.0 8.9----29.91- 75.0 79.5----
2024-07-18 09:42 am NW 8.9 9.9----29.91- 74.8 79.5----
2024-07-18 09:36 am NW 8.9 11.1----29.90- 74.7 79.5----
2024-07-18 09:30 am NW 8.0 12.0----29.90- 74.7 79.5----
2024-07-18 09:24 am NW 8.9 12.0----29.90- 74.7 79.5----
2024-07-18 09:18 am NW 8.9 13.0----29.90- 74.5 79.5----
2024-07-18 09:12 am NW 9.9 11.1----29.89- 74.3 79.5----
2024-07-18 09:06 am NW 8.0 9.9----29.89- 74.3 79.5----
2024-07-18 09:00 am NW 8.0 11.1----29.89+0.03 74.3 79.5----
2024-07-18 08:54 am NW 8.0 9.9----29.89- 74.3 79.5----
2024-07-18 08:48 am NW 8.0 11.1----29.89- 74.5 79.5----
2024-07-18 08:42 amWNW 8.9 12.0----29.89- 74.3 79.5----
2024-07-18 08:36 amWNW 9.9 11.1----29.89- 74.5 79.7----
2024-07-18 08:30 amWNW 8.0 11.1----29.89- 74.7 79.7----
2024-07-18 08:24 amWNW 8.9 9.9----29.89- 74.7 79.7----
2024-07-18 08:18 am NW 8.9 9.9----29.89- 74.7 79.7----
2024-07-18 08:12 am NW 8.9 11.1----29.89- 74.5 79.7----
2024-07-18 08:06 am NW 8.9 11.1----29.89- 74.5 79.7----
2024-07-18 08:00 am NW 8.0 9.9----29.88+0.04 74.7 79.7----
2024-07-18 07:54 am NW 8.0 8.9----29.88- 74.5 79.7----
2024-07-18 07:48 amWNW 8.0 8.9----29.88-- 79.7----
2024-07-18 07:42 am NW 8.0 9.9----29.88-- 79.7----
2024-07-18 07:36 am NW 8.0 9.9----29.88-- 79.7----
2024-07-18 07:30 amWNW 8.9 9.9----29.88- 74.3 79.7----
2024-07-18 07:24 am NW 8.0 9.9----29.88- 74.1 79.7----
2024-07-18 07:18 am NW 8.9 9.9----29.87- 73.9 79.7----
2024-07-18 07:12 am NW 8.9 11.1----29.87- 73.8 79.7----
2024-07-18 07:06 am NW 8.0 9.9----29.87- 73.8 79.7----
2024-07-18 07:00 am NW 8.9 11.1----29.87+0.04 73.8 79.7----
2024-07-18 06:54 am NW 9.9 13.0----29.87- 73.8 79.7----
2024-07-18 06:48 am NW 9.9 12.0----29.87- 73.9 79.7----
2024-07-18 06:42 am NW 8.9 11.1----29.86- 73.8 79.7----
2024-07-18 06:36 am NW 8.0 9.9----29.86- 73.9 79.7----
2024-07-18 06:30 am NW 8.9 11.1----29.87- 73.9 79.7----
2024-07-18 06:24 am NW 8.9 9.9----29.86- 73.9 79.7----
2024-07-18 06:18 am NW 8.9 11.1----29.86- 74.1 79.7----
2024-07-18 06:12 am NW 8.9 11.1----29.86- 74.1 79.7----
2024-07-18 06:06 am NW 8.9 9.9----29.86- 73.9 79.7----
2024-07-18 06:00 am NW 8.9 9.9----29.86+0.03 73.9 79.7----
2024-07-18 05:54 am NW 8.9 9.9----29.86- 73.9 79.7----
2024-07-18 05:48 am NW 8.9 11.1----29.86- 73.9 79.7----
2024-07-18 05:42 am NW 8.9 11.1----29.85- 73.9 79.7----
2024-07-18 05:36 am NW 8.0 11.1----29.85- 73.8 79.7----
2024-07-18 05:30 am NW 8.0 9.9----29.85- 73.9 79.7----
2024-07-18 05:24 am NW 8.0 8.9----29.85- 73.8 79.7----
2024-07-18 05:18 am NW 8.9 9.9----29.85- 73.6 79.7----
2024-07-18 05:12 am NW 8.0 8.9----29.84- 73.4 79.7----
2024-07-18 05:06 am NW 6.0 7.0----29.84- 73.4 79.9----
2024-07-18 05:00 am NW 7.0 9.9----29.84+0.02 73.6 79.9----
2024-07-18 04:54 amWNW 8.9 11.1----29.84- 74.7 79.9----
2024-07-18 04:48 am W 7.0 8.9----29.84-- 79.9----
2024-07-18 04:42 am W 6.0 8.0----29.84-- 79.9----
2024-07-18 04:36 amWSW 6.0 7.0----29.83-- 79.9----
2024-07-18 04:30 am SW 6.0 8.0----29.83- 74.5 79.9----
2024-07-18 04:24 am SW 6.0 8.0----29.83- 74.3 79.9----
2024-07-18 04:18 am SW 6.0 7.0----29.84- 74.1 79.9----
2024-07-18 04:12 amWSW 5.1 7.0----29.84- 74.1 80.1----
2024-07-18 04:06 am SW 7.0 8.0----29.84- 73.9 80.1----
2024-07-18 04:00 am SW 7.0 8.9----29.84+0.03 74.1 80.1----
2024-07-18 03:54 amSSW 8.9 9.9----29.83- 73.8 80.1----
2024-07-18 03:48 amSSW 8.9 9.9----29.83- 73.9 80.1----
2024-07-18 03:42 amSSW 8.0 9.9----29.83- 74.1 80.1----
2024-07-18 03:36 amSSW 8.9 9.9----29.83- 73.9 80.2----
2024-07-18 03:30 amSSW 8.0 11.1----29.83- 73.8 80.2----
2024-07-18 03:24 amSSW 9.9 12.0----29.83- 73.8 80.2----
2024-07-18 03:18 amSSW 8.9 11.1----29.83- 73.8 80.2----
2024-07-18 03:12 amSSW 9.9 12.0----29.83- 73.8 80.4----
2024-07-18 03:06 am SW 8.0 9.9----29.83- 73.9 80.4----
2024-07-18 03:00 amSSW 8.9 9.9----29.83+0.00 73.9 80.6----
2024-07-18 02:54 amSSW 8.0 8.9----29.83- 74.1 80.6----
2024-07-18 02:48 am S 8.9 9.9----29.83- 73.9 80.6----
2024-07-18 02:42 amSSW 8.9 9.9----29.83- 74.1 80.6----
2024-07-18 02:36 amSSW 7.0 9.9----29.83- 74.3 80.6----
2024-07-18 02:30 amSSW 8.0 8.9----29.82- 74.3 80.8----
2024-07-18 02:24 amSSW 8.0 9.9----29.82- 74.1 80.8----
2024-07-18 02:18 am S 8.0 9.9----29.82- 73.9 80.8----
2024-07-18 02:12 amSSE 7.0 8.9----29.82- 73.6 80.8----
2024-07-18 02:06 amSSE 5.1 7.0----29.82- 73.4 80.8----
2024-07-18 02:00 amSSE 5.1 6.0----29.82-0.04 73.6 80.8----
2024-07-18 01:54 amSSE 5.1 6.0----29.82- 73.6 80.8----
2024-07-18 01:48 am SE 5.1 6.0----29.82- 73.6 81.0----
2024-07-18 01:42 am SE 4.1 6.0----29.82- 73.4 81.0----
2024-07-18 01:36 amSSE 5.1 8.0----29.82- 73.8 81.0----
2024-07-18 01:30 amSSE 6.0 8.0----29.81- 73.6 81.0----
2024-07-18 01:24 amSSE 7.0 8.0----29.81- 73.8 81.0----
2024-07-18 01:18 am S 6.0 7.0----29.81- 73.4 81.0----
2024-07-18 01:12 amSSE 5.1 6.0----29.81- 73.2 81.0----
2024-07-18 01:06 amSSE 5.1 5.1----29.81- 73.2 81.0----
2024-07-18 01:00 amSSE 4.1 5.1----29.81-0.08 72.9 81.0----
2024-07-18 12:54 amESE 1.9 2.9----29.81- 73.0 81.0----